| time (UTC) | temp C | wind direction | speed KPH | gust KPH | rain 1hr cm | rain 24hr cm | rain mn cm | humidity % | barometer mb |
| 20260503223014 | 28 | 277 | 20.9 | 29.0 | 0.00 | 0.00 | 0.00 | 47 | 1009.7 |
| 20260503221515 | 28 | 303 | 14.5 | 32.2 | 0.00 | 0.00 | 0.00 | 44 | 1009.9 |
| 20260503220016 | 28 | 321 | 9.7 | 24.1 | 0.00 | 0.00 | 0.00 | 47 | 1010.1 |
| 20260503214514 | 28 | 269 | 6.4 | 22.5 | 0.00 | 0.00 | 0.00 | 49 | 1010.2 |
| 20260503213015 | 28 | 272 | 6.4 | 24.1 | 0.00 | 0.00 | 0.00 | 46 | 1010.3 |
| 20260503211512 | 27 | 342 | 6.4 | 20.9 | 0.00 | 0.00 | 0.00 | 50 | 1010.4 |
| 20260503210014 | 27 | 302 | 6.4 | 17.7 | 0.00 | 0.00 | 0.00 | 48 | 1010.7 |
| 20260503204516 | 27 | 329 | 8.0 | 24.1 | 0.00 | 0.00 | 0.00 | 49 | 1011.0 |
| 20260503203021 | 26 | 331 | 14.5 | 24.1 | 0.00 | 0.00 | 0.00 | 51 | 1011.2 |
| 20260503201514 | 26 | 323 | 9.7 | 17.7 | 0.00 | 0.00 | 0.00 | 49 | 1011.3 |
| 20260503200016 | 26 | 285 | 12.9 | 20.9 | 0.00 | 0.00 | 0.00 | 53 | 1011.5 |
| 20260503194515 | 25 | 296 | 9.7 | 20.9 | 0.00 | 0.00 | 0.00 | 54 | 1011.7 |
| 20260503193022 | 25 | 286 | 6.4 | 16.1 | 0.00 | 0.00 | 0.00 | 59 | 1011.8 |
| 20260503191516 | 25 | 316 | 11.3 | 19.3 | 0.00 | 0.00 | 0.00 | 61 | 1012.0 |
| 20260503190016 | 23 | 335 | 8.0 | 20.9 | 0.00 | 0.00 | 0.00 | 63 | 1012.3 |
| 20260503184532 | 23 | 312 | 3.2 | 17.7 | 0.00 | 0.00 | 0.00 | 63 | 1012.4 |
| 20260503183015 | 23 | 326 | 4.8 | 16.1 | 0.00 | 0.00 | 0.00 | 67 | 1012.7 |
| 20260503181512 | 22 | 319 | 1.6 | 16.1 | 0.00 | 0.00 | 0.00 | 61 | 1012.8 |
| 20260503180022 | 21 | 275 | 4.8 | 12.9 | 0.00 | 0.00 | 0.00 | 62 | 1013.0 |
| 20260503174515 | 21 | 298 | 3.2 | 12.9 | 0.00 | 0.00 | 0.00 | 63 | 1013.1 |
| 20260503173015 | 21 | 309 | 1.6 | 16.1 | 0.00 | 0.00 | 0.00 | 62 | 1013.2 |
| 20260503171512 | 20 | 333 | 4.8 | 11.3 | 0.00 | 0.00 | 0.00 | 64 | 1013.3 |
| 20260503081516 | 12 | 150 | 1.6 | 3.2 | 0.00 | 0.00 | 0.00 | 87 | 1014.0 |
| 20260503071527 | 13 | 319 | 1.6 | 4.8 | 0.00 | 0.00 | 0.00 | 80 | 1013.7 |
| 20260503054532 | 17 | 360 | 0.0 | 6.4 | 0.00 | 0.00 | 0.00 | 64 | 1013.9 |
| 20260503053033 | 17 | 360 | 3.2 | 12.9 | 0.00 | 0.00 | 0.00 | 64 | 1013.7 |
| 20260503051526 | 17 | 352 | 0.0 | 3.2 | 0.00 | 0.00 | 0.00 | 65 | 1013.5 |
| 20260503050026 | 18 | 352 | 1.6 | 8.0 | 0.00 | 0.00 | 0.00 | 61 | 1013.2 |
| 20260503044526 | 19 | 11 | 4.8 | 16.1 | 0.00 | 0.00 | 0.00 | 61 | 1013.0 |
| 20260503043010 | 20 | 348 | 4.8 | 14.5 | 0.00 | 0.00 | 0.00 | 60 | 1012.8 |
| 20260503041511 | 20 | 313 | 9.7 | 17.7 | 0.00 | 0.00 | 0.00 | 59 | 1012.6 |
| 20260503040009 | 20 | 309 | 11.3 | 24.1 | 0.00 | 0.00 | 0.00 | 59 | 1012.3 |
| 20260503034524 | 20 | 323 | 17.7 | 27.4 | 0.00 | 0.00 | 0.00 | 57 | 1012.0 |
| 20260503033008 | 21 | 319 | 14.5 | 27.4 | 0.00 | 0.00 | 0.00 | 56 | 1011.8 |
| 20260503031506 | 21 | 316 | 14.5 | 24.1 | 0.00 | 0.00 | 0.00 | 57 | 1011.8 |
| 20260503030010 | 21 | 316 | 12.9 | 20.9 | 0.00 | 0.00 | 0.00 | 57 | 1011.7 |
| 20260503024508 | 22 | 331 | 11.3 | 20.9 | 0.00 | 0.00 | 0.00 | 56 | 1011.6 |
| 20260503023007 | 22 | 323 | 11.3 | 25.7 | 0.00 | 0.00 | 0.00 | 54 | 1011.5 |
| 20260503021509 | 23 | 289 | 12.9 | 24.1 | 0.00 | 0.00 | 0.00 | 53 | 1011.5 |
| 20260503020007 | 23 | 331 | 12.9 | 29.0 | 0.00 | 0.00 | 0.00 | 52 | 1011.5 |
| 20260503014514 | 23 | 295 | 9.7 | 27.4 | 0.00 | 0.00 | 0.00 | 51 | 1011.5 |
| 20260503013008 | 23 | 334 | 19.3 | 29.0 | 0.00 | 0.00 | 0.00 | 50 | 1011.6 |
| 20260503011508 | 24 | 9 | 19.3 | 30.6 | 0.00 | 0.00 | 0.00 | 49 | 1011.5 |
| 20260503010008 | 24 | 313 | 22.5 | 32.2 | 0.00 | 0.00 | 0.00 | 50 | 1011.5 |
| 20260503004506 | 24 | 5 | 14.5 | 27.4 | 0.00 | 0.00 | 0.00 | 50 | 1011.5 |
| 20260503003009 | 24 | 352 | 14.5 | 27.4 | 0.00 | 0.00 | 0.00 | 50 | 1011.6 |
| 20260503001508 | 24 | 343 | 14.5 | 25.7 | 0.00 | 0.00 | 0.00 | 52 | 1011.6 |
| 20260503000005 | 24 | 333 | 16.1 | 27.4 | 0.00 | 0.00 | 0.00 | 50 | 1011.8 |
| 20260502234508 | 24 | 348 | 12.9 | 27.4 | 0.00 | 0.00 | 0.00 | 55 | 1011.8 |
| 20260502233008 | 23 | 344 | 20.9 | 29.0 | 0.00 | 0.00 | 0.00 | 57 | 1011.9 |
| 20260502230015 | 23 | 360 | 12.9 | 22.5 | 0.00 | 0.00 | 0.00 | 57 | 1012.5 |
| 20260502224513 | 23 | 17 | 9.7 | 22.5 | 0.00 | 0.00 | 0.00 | 55 | 1012.7 |